This demonstration page uses our WeatherBlox Daily Observations layout. Learn more.

Left ArrowRight Arrow

39.92423, -83.80882

Hourly Observations for March 8, 2019

Temp ( °F °C ) Dew Point ( °F °C ) Humidity (%) Winds ( mph kmh ) Pressure ( in mb ) Visibility ( mi km ) Precip ( " mm )
12:56 am 00:56 Cloudy 24 -4.4 21 -6.1 88 88 E 6 9 30.3 1026 10 16.0934 0 0
1:56 am 01:56 Clear 25 -3.9 21 -6.1 85 85 ESE 8 13 30.29 1026 10 16.0934 0 0
2:56 am 02:56 Clear 25 -3.9 20 -6.7 81 81 ESE 6 9 30.28 1026 10 16.0934 0 0
4:56 am 04:56 Cloudy 26 -3.3 22 -5.6 84 84 ESE 8 13 30.24 1024 10 16.0934 0 0
5:56 am 05:56 Cloudy 27 -2.8 22 -5.6 81 81 E 7 11 30.25 1024 10 16.0934 0 0
6:56 am 06:56 Cloudy with Light Snow 27 -2.8 23 -5 85 85 E 7 11 30.24 1024 7 11.26538 0 0.0254
7:56 am 07:56 Cloudy with Light Snow 27 -2.8 23 -5 85 85 E 9 15 30.22 1023 8 12.87472 0 0.0254
8:56 am 08:56 Cloudy with Light Snow 27 -2.8 24 -4.4 89 89 E 8 13 30.23 1024 4 6.43736 0 0.0254
9:06 am 09:06 Cloudy with Light Snow 28 -2 25 -4 86 86 E 8 13 30.25 1024 2.5 4.02335 0 0.0254
9:15 am 09:15 Cloudy with Light Snow 28 -2 25 -4 86 86 E 8 13 30.25 1024 2.5 4.02335 0 0.0254
9:32 am 09:32 Cloudy with Light Snow 28 -2 25 -4 86 86 E 8 13 30.24 1024 2 3.21868 0 0.0254
9:56 am 09:56 Cloudy with Light Snow 28 -2.2 26 -3.3 92 92 E 9 15 30.22 1023 2.5 4.02335 0 0.0254
10:15 am 10:15 Cloudy with Light Snow 28 -2 27 -3 93 93 E 8 13 30.22 1023 3 4.82802 0 0.0254
11:47 am 11:47 Cloudy with Light Wintry Mix 30 -1 28 -2 93 93 E 8 13 30.21 1023 10 16.0934 0 0.0254
11:56 am 11:56 Cloudy with Light Wintry Mix 31 -0.6 29 -1.7 92 92 E 8 13 30.2 1023 10 16.0934 0 0.0254
12:21 pm 12:21 Cloudy with Light Wintry Mix 32 0 28 -2 87 87 E 8 13 30.21 1023 10 16.0934 0 0.0254
12:56 pm 12:56 Cloudy with Light Wintry Mix 32 0 30 -1.1 92 92 E 8 13 30.18 1022 10 16.0934 0 0.0254
1:56 pm 13:56 Cloudy 34 1.1 31 -0.6 89 89 E 8 13 30.16 1021 10 16.0934 0 0.0254
2:56 pm 14:56 Cloudy 35 1.7 32 0 89 89 ENE 8 13 30.14 1021 10 16.0934 0 0
3:56 pm 15:56 Cloudy 36 2.2 32 0 86 86 E 8 13 30.14 1021 10 16.0934 0 0
4:56 pm 16:56 Cloudy 36 2.2 32 0 86 86 E 8 13 30.13 1020 10 16.0934 0 0
5:56 pm 17:56 Cloudy 36 2.2 32 0 86 86 E 7 11 30.13 1020 10 16.0934 0 0
6:56 pm 18:56 Cloudy 33 0.6 31 -0.6 92 92 E 6 9 30.14 1021 10 16.0934 0 0
7:56 pm 19:56 Cloudy 33 0.6 32 0 96 96 SE 5 7 30.15 1021 10 16.0934 0 0
8:47 pm 20:47 Mostly Clear 30 -1 30 -1 100 100 ESE 3 6 30.19 1022 8 12.87472 0 0
8:56 pm 20:56 Mostly Clear 31 -0.6 30 -1.1 96 96 SE 3 6 30.18 1022 7 11.26538 0 0
9:56 pm 21:56 Clear with Mist and Fog 27 -2.8 27 -2.8 100 100 Calm 30.18 1022 2.5 4.02335 0 0
10:22 pm 22:22 Clear with Mist and Fog 27 -3 27 -3 100 100 Calm 30.21 1023 1.25 2.011675 0 0
10:34 pm 22:34 Clear with Mist and Fog 27 -3 27 -3 100 100 Calm 30.21 1023 0.75 1.207005 0 0
10:43 pm 22:43 Clear with Freezing Fog 27 -3 27 -3 100 100 Calm 30.21 1023 0.5 0.80467 0 0
10:56 pm 22:56 Clear with Freezing Fog 26 -3.3 26 -3.3 100 100 ENE 5 7 30.18 1022 0.25 0.402335 0 0
11:06 pm 23:06 Clear with Light Snow 27 -3 27 -3 100 100 ENE 5 7 30.21 1023 0.5 0.80467 0 0.0254
11:14 pm 23:14 Clear with Light Snow 25 -4 25 -4 100 100 ENE 5 7 30.21 1023 0.25 0.402335 0 0.0254
11:35 pm 23:35 Clear with Light Snow 25 -4 25 -4 100 100 ENE 6 9 30.19 1022 0.75 1.207005 0 0.0254
11:51 pm 23:51 Clear with Mist and Fog 25 -4 25 -4 100 100 NE 7 11 30.19 1022 1 1.60934 0 0.0254
11:56 pm 23:56 Clear with Mist and Fog 25 -3.9 25 -3.9 100 100 ENE 7 11 30.16 1021 1.25 2.011675 0 0.0254

Powered by AerisWeather